This demonstration page uses our WeatherBlox Daily Observations layout. Learn more.

Left ArrowRight Arrow

41.86663, -103.66717

Hourly Observations for January 15, 2020

Temp ( °F °C ) Dew Point ( °F °C ) Humidity (%) Winds ( mph kmh ) Pressure ( in mb ) Visibility ( mi km ) Precip ( " mm )
12:53 am 00:53 Clear 35 1.7 18 -7.8 50 50 W 17 28 29.93 1014 10 16.0934 0 0
1:53 am 01:53 Mostly Clear 33 0.6 17 -8.3 52 52 WNW 17 28 29.97 1015 10 16.0934 0 0
2:53 am 02:53 Clear 28 -2.2 17 -8.3 63 63 WNW 9 15 30.04 1017 10 16.0934 0 0
3:53 am 03:53 Clear 29 -1.7 15 -9.4 56 56 WNW 13 20 30.05 1018 10 16.0934 0 0
4:53 am 04:53 Clear 27 -2.8 15 -9.4 61 61 NW 10 17 30.11 1020 10 16.0934 0 0
5:53 am 05:53 Clear 23 -5 14 -10 68 68 NW 8 13 30.13 1020 10 16.0934 0 0
6:53 am 06:53 Clear 25 -3.9 14 -10 63 63 WNW 8 13 30.15 1021 10 16.0934 0 0
7:53 am 07:53 Sunny 24 -4.4 13 -10.6 62 62 NW 5 7 30.17 1022 10 16.0934 0 0
8:53 am 08:53 Sunny 32 0 13 -10.6 45 45 W 10 17 30.17 1022 10 16.0934 0 0
9:53 am 09:53 Sunny 38 3.3 13 -10.6 36 36 W 20 31 30.17 1022 10 16.0934 0 0
10:53 am 10:53 Sunny 40 4.4 11 -11.7 30 30 W 23 37 30.19 1023 10 16.0934 0 0
11:53 am 11:53 Sunny 43 6.1 9 -12.8 25 25 WNW 23 37 30.18 1022 10 16.0934 0 0
12:53 pm 12:53 Sunny 45 7.2 10 -12.2 24 24 WNW 14 22 30.17 1022 10 16.0934 0 0
1:53 pm 13:53 Sunny 43 6.1 10 -12.2 26 26 NNW 16 26 30.21 1023 10 16.0934 0 0
2:53 pm 14:53 Sunny 43 6.1 10 -12.2 26 26 NNW 15 24 30.26 1025 10 16.0934 0 0
3:53 pm 15:53 Sunny 40 4.4 11 -11.7 30 30 NNW 12 19 30.31 1026 10 16.0934 0 0
4:53 pm 16:53 Clear 31 -0.6 11 -11.7 43 43 NE 13 20 30.38 1029 10 16.0934 0 0
5:53 pm 17:53 Clear 23 -5 14 -10 68 68 NE 13 20 30.48 1032 10 16.0934 0 0
6:53 pm 18:53 Clear 17 -8.3 10 -12.2 74 74 E 7 11 30.55 1035 10 16.0934 0 0
7:53 pm 19:53 Clear 17 -8.3 11 -11.7 77 77 SE 8 13 30.57 1035 10 16.0934 0 0
8:53 pm 20:53 Clear 13 -10.6 9 -12.8 84 84 E 6 9 30.55 1034 10 16.0934 0 0
9:53 pm 21:53 Clear 11 -11.7 8 -13.3 88 88 E 6 9 30.53 1034 10 16.0934 0 0
10:53 pm 22:53 Clear 13 -10.6 9 -12.8 84 84 ESE 7 11 30.52 1034 10 16.0934 0 0
11:53 pm 23:53 Clear 13 -10.6 10 -12.2 88 88 E 8 13 30.5 1033 10 16.0934 0 0

Powered by AerisWeather